Theta_e
290 287 286 287 288 289 290 290 291 290 288 287 285 285 285 284 286 286 287 290 289 289 286 288 286 285 288 288 289 290 290 289 288 287 287 287 287 286 286 286 286 286 286 288 288 288 288 288 289 290 290 290 291 291 291 291 291 292 292 293 292 294 295 297 297 298 299 300 302 303 302 301 303 303 304 304 305 305 304 305 306 307 308 308 308 309
291 287 287 290 290 291 291 289 289 288 288 288 287 284 285 283 285 287 288 289 287 289 284 284 286 287 288 287 289 289 289 287 287 287 286 286 286 286 285 285 285 286 287 287 287 287 287 287 288 288 289 289 288 289 290 290 290 291 291 291 292 293 293 294 295 296 297 296 296 297 297 297 298 299 298 297 299 300 300 300 300 301 303 304 304 305
287 286 290 292 292 290 288 288 288 287 287 286 285 284 283 285 284 288 288 288 288 288 286 283 286 287 288 286 288 287 286 287 287 287 286 286 285 285 285 285 285 285 285 285 286 286 286 286 286 287 287 287 288 288 288 289 289 289 290 290 291 291 292 292 294 295 295 295 296 296 295 295 294 295 295 294 294 295 295 295 295 295 297 299 299 300
284 286 291 293 290 290 289 286 286 287 285 284 284 283 284 284 285 284 285 286 289 288 286 283 285 288 286 287 287 287 287 286 287 287 286 286 285 284 285 284 284 284 284 284 284 284 285 285 285 286 286 286 287 287 287 288 288 289 289 289 290 290 291 291 292 293 294 294 294 295 295 294 294 292 293 293 293 293 293 292 292 292 292 293 294 295
290 291 291 290 289 290 289 287 287 285 285 284 286 284 284 285 285 287 286 286 285 287 285 286 285 284 284 286 284 286 287 286 286 286 285 286 285 285 285 285 285 283 283 283 284 284 284 284 284 285 285 286 286 286 286 286 287 288 287 288 289 289 289 290 291 291 292 293 293 293 293 293 292 292 291 290 290 290 290 291 290 290 291 291 291 291
288 292 290 288 287 288 288 287 286 287 284 282 284 288 289 288 287 284 284 286 281 282 283 284 279 276 279 283 284 285 284 284 284 283 283 284 284 284 284 283 284 284 284 283 283 283 283 284 284 284 284 285 285 285 285 286 286 286 287 287 288 288 289 289 289 290 291 290 290 289 289 288 288 287 287 287 286 287 288 288 289 289 290 290 290 290
290 291 292 291 288 286 286 286 285 289 283 284 287 287 289 287 285 284 285 284 280 279 284 283 282 275 279 282 283 283 282 283 283 282 283 283 283 283 283 283 283 283 283 283 283 283 283 283 283 283 283 284 284 284 285 286 286 286 286 286 287 287 287 288 288 289 290 289 289 288 287 287 286 286 286 286 287 287 287 288 288 288 288 288 288 288
289 289 289 288 287 286 286 285 286 288 285 284 284 284 285 286 285 283 283 285 280 280 282 283 283 279 277 282 284 284 282 281 282 282 282 283 283 283 283 283 283 283 282 282 282 283 283 282 282 282 283 283 283 284 284 285 285 285 285 285 286 286 286 287 287 288 288 287 287 287 286 286 286 285 285 285 286 286 287 286 286 286 286 287 287 287
289 287 287 287 287 284 287 287 286 289 287 284 286 283 284 284 283 282 283 281 281 282 279 279 282 280 276 280 282 284 282 281 281 281 282 283 283 283 283 283 283 283 283 282 282 282 282 282 282 282 282 283 283 284 284 284 284 285 285 285 285 285 285 285 286 286 286 287 286 285 285 284 285 285 285 284 285 284 284 284 284 284 285 285 286 286
289 290 288 289 287 286 286 285 285 290 288 287 284 284 283 283 282 280 279 282 278 279 274 280 282 277 278 278 281 282 282 281 281 282 282 282 283 283 283 283 283 283 282 282 282 282 282 282 282 282 282 283 283 283 284 283 284 284 284 284 284 284 284 284 284 285 285 285 285 284 283 283 283 283 283 283 283 283 283 282 282 283 283 283 284 284
289 290 291 288 288 287 285 285 285 287 287 285 284 285 282 280 279 278 278 276 279 273 275 282 282 282 277 279 281 281 282 282 282 282 282 283 283 283 283 283 283 282 282 282 282 282 282 282 281 281 282 282 282 282 282 283 283 283 283 283 283 283 283 283 283 283 283 284 284 283 283 282 282 282 282 282 282 282 282 281 281 282 282 283 283 283
287 287 289 287 289 286 286 286 284 283 284 285 285 282 281 284 277 276 270 275 272 271 273 277 280 281 275 276 280 281 282 282 284 282 282 282 282 283 283 283 283 282 282 281 281 281 281 281 281 281 281 281 281 281 282 282 282 283 282 283 282 282 282 282 283 283 283 283 283 283 282 282 282 281 281 281 280 281 280 281 281 281 282 282 282 283
285 286 285 288 289 290 284 285 285 282 282 284 282 282 277 273 273 271 269 273 271 273 277 278 279 280 280 281 282 282 281 282 282 284 284 283 282 282 282 283 282 281 280 280 280 280 280 280 280 280 280 280 280 281 281 281 281 281 282 282 282 282 282 282 282 282 282 282 282 282 282 282 282 282 281 281 281 281 281 280 280 281 280 281 281 281
283 281 285 287 289 289 289 285 283 283 283 283 284 279 274 271 270 267 266 265 267 273 276 281 281 278 279 281 280 280 282 282 282 283 285 284 283 283 283 282 281 280 280 280 280 280 280 280 280 280 279 279 280 279 280 280 280 280 281 282 282 281 281 282 282 282 281 281 281 281 281 281 281 281 281 281 280 280 281 281 281 280 280 280 280 281
277 280 284 287 286 288 291 290 288 282 282 284 282 285 282 272 266 268 265 272 275 275 276 276 275 271 276 280 278 280 281 281 281 283 284 283 282 282 280 280 279 280 280 279 280 280 280 280 280 279 279 279 279 279 280 279 279 280 281 281 281 281 281 282 282 282 281 280 280 280 281 281 281 281 281 281 282 281 280 280 280 281 280 280 280 281
282 281 284 287 287 288 289 287 285 284 285 281 280 282 279 280 278 277 272 268 268 271 272 274 276 275 279 279 281 280 280 281 281 282 282 281 281 280 281 281 280 280 280 279 279 280 280 280 280 280 280 279 279 279 279 279 279 280 280 280 280 280 280 281 281 281 280 280 280 280 280 280 281 281 280 280 281 280 280 279 280 280 280 280 280 280
281 280 283 287 286 286 286 286 288 286 281 282 284 279 281 282 283 275 273 275 273 270 274 270 277 280 279 280 279 279 279 279 279 280 280 280 280 280 280 280 280 280 280 279 279 279 280 280 280 280 280 280 280 280 280 280 279 279 280 280 280 279 279 280 280 280 280 280 280 279 279 279 279 279 279 279 279 279 279 279 279 279 279 279 279 280
281 279 282 285 286 287 285 286 285 284 286 284 279 281 283 283 281 279 274 269 267 270 273 272 276 277 278 276 278 279 278 279 278 279 280 280 279 280 280 280 280 280 280 279 279 280 280 280 281 280 281 280 280 280 280 280 280 279 280 280 280 280 280 280 280 281 281 281 281 281 280 279 279 278 278 279 278 279 278 278 278 278 279 279 279 279
286 282 282 285 285 287 284 287 287 287 286 283 281 284 284 278 278 278 272 270 268 267 269 272 275 276 278 280 277 278 278 279 279 279 279 280 280 280 281 281 280 280 280 280 280 280 281 282 282 281 281 281 281 281 281 282 282 283 282 282 282 282 282 281 282 281 282 281 282 281 280 279 279 279 279 278 278 278 278 278 279 279 279 279 279 279
285 281 281 285 285 286 285 285 281 283 287 285 285 285 283 281 274 273 277 272 272 267 268 269 272 277 278 279 280 282 281 280 279 279 280 281 281 282 282 282 281 281 282 282 282 282 282 282 282 282 282 283 283 282 282 282 281 280 280 280 279 279 279 279 279 279 279 279 279 279 278 278 278 278 278 278 277 278 277 278 278 278 278 279 279 279
284 284 278 282 284 285 283 284 283 285 283 283 284 280 283 279 280 278 278 275 277 265 267 270 271 274 276 279 281 283 282 282 281 281 281 282 282 282 282 282 282 281 281 281 281 281 281 280 280 280 280 281 281 281 281 280 280 281 280 281 281 281 281 280 280 278 279 278 278 277 277 278 277 277 277 277 277 277 277 278 278 278 278 278 278 278
283 283 280 278 283 282 282 282 284 284 286 285 285 283 285 280 277 276 277 278 271 274 270 270 274 278 279 284 282 281 282 283 283 283 283 283 283 282 282 282 281 281 281 281 280 280 280 280 281 281 281 281 282 282 283 283 283 283 283 282 281 280 280 280 280 278 279 278 277 277 277 277 276 277 276 277 277 277 277 277 277 277 277 277 277 277
286 283 278 275 280 284 284 287 285 285 285 283 286 283 284 282 281 275 276 275 273 277 272 273 273 278 282 282 282 283 283 284 284 283 283 283 283 282 282 281 281 281 281 281 281 281 281 282 283 283 283 283 283 283 283 282 282 282 280 279 278 278 278 277 279 278 278 278 278 279 276 275 276 276 275 276 276 276 276 276 276 276 276 276 276 276
292 284 282 280 282 283 287 288 288 287 289 288 287 283 282 283 285 285 283 279 276 273 274 272 275 279 283 282 281 281 282 282 283 283 283 283 283 282 282 281 282 282 282 282 282 283 283 283 283 282 281 281 280 280 280 279 279 279 279 279 278 278 278 278 278 277 277 277 277 276 275 275 275 275 275 275 275 275 275 276 276 276 276 276 276 276
286 285 285 280 279 282 283 287 287 287 287 283 283 284 283 282 281 280 278 277 276 277 277 275 274 279 283 281 282 281 281 281 282 282 282 282 282 283 283 283 283 283 283 282 282 282 281 281 280 280 279 279 279 279 279 280 279 279 279 278 279 279 278 278 278 277 277 277 277 275 275 275 274 274 275 275 275 275 275 275 275 275 275 275 275 276
288 285 285 280 278 276 275 275 278 282 285 284 283 282 283 285 282 281 277 279 278 281 280 277 279 282 282 282 283 282 281 281 281 282 281 282 283 283 283 283 283 282 282 281 280 280 279 280 279 279 278 278 279 280 280 280 280 279 279 279 279 279 278 278 277 277 277 275 276 275 275 275 275 275 274 275 275 275 275 275 275 275 275 275 275 275
286 286 287 287 284 282 284 281 283 283 281 281 281 282 283 281 281 281 279 278 279 281 281 283 282 279 282 283 282 281 279 281 282 281 282 282 282 282 282 282 282 282 281 281 281 280 278 278 279 278 278 279 279 278 279 280 280 279 279 279 278 277 277 277 277 276 275 275 274 275 275 274 274 274 274 274 274 274 274 274 274 274 274 274 274 273
283 283 285 286 287 285 282 280 282 285 284 283 282 281 281 279 278 280 280 278 282 279 277 284 279 279 281 280 282 282 281 281 281 281 282 282 283 283 283 282 283 280 280 279 279 278 279 279 278 277 278 278 278 278 278 278 278 278 278 277 276 276 277 278 276 275 275 275 275 275 274 274 274 274 274 274 274 273 273 273 273 273 273 272 272 272
284 285 283 283 283 281 281 282 283 283 283 282 282 283 281 280 277 279 278 284 282 281 279 283 281 280 282 283 283 284 285 284 284 283 284 285 283 282 281 281 281 281 280 279 279 279 278 278 278 277 277 278 278 277 278 277 277 276 276 276 276 276 275 275 275 275 274 274 274 274 274 273 274 273 273 273 272 272 272 271 271 271 271 270 270 271
286 283 282 283 282 281 280 281 281 282 280 280 281 282 282 280 280 281 281 283 282 280 282 282 280 280 282 281 282 285 285 283 283 283 281 281 281 282 281 281 281 280 280 279 279 279 278 278 278 278 278 278 278 277 277 276 276 276 276 276 275 275 275 274 274 274 273 273 273 273 273 273 272 272 272 271 271 270 270 270 269 269 268 268 268 268
287 281 283 281 280 278 276 279 279 279 280 281 283 282 281 278 279 281 282 280 279 279 280 280 279 279 283 283 282 281 281 280 280 281 281 280 280 280 280 280 280 280 279 279 279 278 278 278 278 278 278 278 277 277 277 277 276 276 275 275 274 274 274 273 273 273 272 272 272 272 272 271 271 270 269 270 269 268 267 268 267 266 266 266 266 267
285 279 278 278 278 276 276 277 277 276 276 274 275 277 276 277 276 279 276 278 277 277 278 276 272 277 282 281 280 280 279 280 281 282 281 280 280 279 279 280 279 279 278 278 278 278 278 277 277 277 278 278 277 276 276 276 275 275 275 274 274 274 273 273 272 271 271 271 271 271 270 270 269 268 267 267 266 266 265 265 264 264 265 265 265 266
283 279 275 274 275 275 275 275 275 273 275 274 276 277 277 278 280 280 278 278 280 281 275 273 276 282 281 279 278 279 279 279 279 279 280 280 278 278 279 279 279 278 278 278 278 278 278 278 278 278 278 277 277 277 276 276 275 275 274 273 273 273 271 271 270 270 270 269 269 268 268 267 266 265 265 265 264 264 264 263 263 263 263 263 264 264
281 282 279 281 277 273 273 273 273 272 268 274 279 280 279 277 277 276 277 278 278 280 277 281 281 280 278 278 278 279 279 279 280 280 280 281 280 278 278 278 278 279 278 278 278 278 278 278 278 278 278 278 277 276 276 275 275 274 273 273 272 270 270 269 269 268 268 267 268 267 267 266 263 263 263 263 263 263 262 262 262 262 262 263 263 263
280 281 279 277 275 271 271 272 272 268 272 279 275 277 278 279 278 277 278 278 277 278 279 277 277 278 279 279 280 280 280 277 274 276 277 278 279 279 279 278 279 278 278 278 277 277 278 277 276 275 275 275 275 275 274 273 273 272 271 271 270 269 268 268 267 267 268 266 266 265 264 264 263 263 263 262 262 261 261 261 261 262 262 262 262 261
279 279 277 274 274 272 270 273 268 270 278 277 277 276 277 276 276 276 273 276 277 277 278 277 279 280 280 279 279 276 277 276 274 274 275 275 278 280 278 279 279 278 277 277 277 277 277 276 276 276 276 275 274 273 273 273 272 270 269 268 269 267 267 266 265 266 266 264 264 264 265 263 262 262 261 262 261 260 261 261 260 260 261 261 261 261
282 279 279 275 279 271 273 271 274 276 277 280 277 274 276 274 274 274 269 274 278 278 278 278 279 279 279 278 277 274 273 274 274 275 274 274 275 275 279 279 279 277 277 277 277 278 278 278 277 277 276 274 274 273 272 271 269 269 267 266 265 264 265 265 264 265 264 263 263 263 263 263 262 261 260 260 260 259 259 260 260 260 260 259 260 260
282 280 280 278 274 275 269 270 268 267 270 275 281 277 278 277 278 277 275 270 275 271 277 278 278 279 277 272 272 272 273 274 272 274 276 276 275 275 275 276 275 275 276 276 277 277 277 276 275 275 275 273 272 271 270 269 268 267 266 265 264 263 264 263 264 264 262 263 262 263 262 262 260 259 259 259 258 259 260 260 260 259 259 259 259 259
281 281 280 280 274 271 270 270 270 269 272 277 274 275 274 274 276 273 269 266 272 269 275 277 277 273 273 273 270 272 271 266 270 273 277 277 276 275 276 276 275 275 276 276 277 277 276 275 275 274 272 271 270 269 268 266 265 265 265 264 264 263 262 262 264 262 262 262 263 262 261 260 260 259 258 258 259 258 258 259 259 259 259 259 258 259
277 276 277 274 272 273 271 269 269 270 270 270 265 267 271 274 276 274 260 261 268 272 273 275 275 273 273 273 273 273 272 266 270 274 277 277 277 277 277 277 276 275 275 275 276 276 276 274 272 270 270 270 270 267 265 264 265 264 264 264 264 262 261 263 263 263 262 262 262 261 260 259 258 258 258 258 258 258 258 258 258 258 258 258 258 258
276 273 276 272 274 274 275 269 267 268 274 271 274 274 274 274 273 264 265 268 270 272 274 276 276 275 274 272 273 270 274 276 277 278 276 275 275 276 275 276 277 277 276 275 276 277 274 273 273 273 272 271 268 266 264 264 264 263 263 263 263 262 263 263 262 261 261 261 260 259 259 258 257 257 257 257 257 258 258 258 258 258 257 257 257 257
270 272 271 273 271 271 271 269 269 271 273 273 275 276 276 274 263 266 272 273 274 274 274 276 276 274 273 274 274 275 276 277 278 276 274 274 276 278 278 276 274 275 275 275 275 274 273 272 271 269 268 267 266 265 264 263 263 262 263 261 262 262 263 262 261 261 259 259 258 258 256 256 256 257 257 256 256 256 257 257 257 257 256 257 256 256
271 271 269 272 274 271 270 268 267 264 274 277 275 274 276 268 269 273 272 274 275 277 275 274 275 275 274 274 275 276 277 276 275 276 276 275 275 276 276 275 274 275 274 273 272 272 272 271 270 269 268 266 264 264 263 261 261 260 260 261 262 262 262 261 260 260 259 258 257 255 255 255 255 256 256 256 256 256 256 256 255 255 256 256 255 255
273 265 263 270 276 266 270 267 268 275 275 278 278 272 272 277 275 274 275 274 275 274 275 275 275 276 275 276 276 275 275 275 275 274 274 273 274 275 274 274 274 274 274 274 275 273 271 272 270 268 266 265 264 263 263 261 261 260 260 261 262 261 260 259 259 257 256 255 255 254 254 253 254 255 255 255 255 255 255 255 255 255 255 256 255 255
275 271 270 267 272 269 268 274 274 275 276 278 279 278 279 281 277 275 276 277 275 275 274 275 276 276 275 276 276 276 275 275 276 277 275 276 275 275 274 274 275 274 274 274 273 272 271 272 269 267 264 264 262 262 261 260 260 259 259 260 261 261 259 257 255 255 254 253 252 253 253 253 253 254 253 254 254 254 255 255 253 255 255 255 255 255
272 274 272 270 269 273 273 275 274 273 275 277 278 278 278 278 278 277 277 276 275 276 276 276 276 276 275 275 275 274 275 276 276 276 275 274 274 275 275 274 273 273 273 271 270 270 270 269 267 265 264 262 261 261 260 259 259 259 259 260 260 258 257 255 253 253 253 252 252 253 253 253 254 254 254 255 255 255 255 255 255 255 255 255 255 255
272 273 271 272 271 270 266 273 273 274 274 276 278 279 277 277 279 278 277 277 278 277 275 276 277 277 277 275 275 276 276 276 276 276 275 275 274 274 274 274 274 274 273 272 272 269 267 266 265 264 264 262 261 260 259 258 258 259 258 258 259 258 255 252 253 254 253 253 253 252 252 253 254 254 255 253 255 255 255 255 255 254 255 255 254 255
270 274 272 273 270 271 269 272 273 274 273 275 278 277 278 279 278 275 277 278 278 277 276 277 276 274 275 274 275 275 276 276 275 275 275 275 275 275 274 274 273 273 272 272 270 268 267 267 267 265 263 263 261 260 259 258 258 257 257 256 258 254 252 253 253 253 252 251 251 252 252 253 256 256 255 255 254 255 255 255 254 254 254 255 256 256
273 274 264 270 271 273 273 273 272 273 274 274 275 276 279 279 279 277 276 276 276 276 276 275 274 276 276 277 276 275 275 276 276 276 275 276 275 274 275 274 274 274 273 270 267 266 268 267 266 265 263 263 261 260 259 257 257 256 257 258 255 253 253 254 254 253 251 251 250 252 254 254 254 254 254 254 254 254 255 255 255 255 256 258 259 259
273 272 272 270 267 265 267 273 274 267 268 275 276 278 278 278 277 277 276 274 275 275 275 275 276 275 275 276 276 275 274 276 276 275 274 275 276 276 275 275 274 272 271 269 267 266 266 265 266 264 262 261 260 259 258 256 256 255 257 255 254 253 253 253 252 250 250 251 251 251 252 253 253 253 254 253 254 254 255 259 264 263 261 261 265 268
274 275 273 271 272 268 273 275 277 278 277 278 279 280 279 278 276 276 276 276 276 276 276 276 275 276 275 274 275 275 275 276 276 275 274 274 275 275 274 272 271 270 269 266 265 264 265 264 263 262 261 260 258 257 257 257 256 254 255 256 255 254 253 252 252 252 253 253 252 253 253 253 254 254 253 254 254 254 254 255 257 263 265 266 267 268
Wind_Speed
1 4 5 9 9 10 9 12 13 4 2 2 2 2 4 5 7 3 3 5 0 2 5 6 4 4 9 4 5 6 4 8 6 7 6 6 5 5 6 6 5 7 6 5 5 7 8 9 8 7 8 7 11 12 12 13 14 13 11 12 13 9 11 10 10 10 9 8 7 10 10 8 8 8 9 10 10 11 11 12 12 11 10 10 11 10
3 4 10 9 9 12 9 5 2 2 0 0 0 1 7 3 9 5 4 1 1 2 3 1 2 7 8 4 7 5 7 7 5 6 6 6 5 5 6 6 5 3 3 6 8 10 9 9 10 9 9 11 15 12 12 13 12 11 11 12 10 10 11 10 8 7 9 7 5 6 6 7 9 10 11 10 11 10 10 13 13 11 11 11 11 10
1 8 12 13 4 3 2 4 4 6 5 1 4 3 2 8 3 10 6 3 2 3 7 2 3 8 4 4 6 6 6 4 5 4 3 4 5 5 6 5 5 6 7 7 7 7 7 8 8 7 8 9 8 9 11 10 11 12 11 10 9 10 10 10 9 8 7 6 7 9 7 7 7 7 6 7 8 9 11 12 12 12 11 12 11 11
3 6 18 6 3 3 0 3 5 2 2 4 1 1 8 3 2 6 3 2 1 1 2 2 4 8 2 4 6 6 4 4 6 7 7 6 6 6 6 4 4 5 6 7 7 7 7 8 7 7 9 8 9 10 12 12 12 10 11 10 11 10 10 10 10 8 6 6 5 7 8 10 11 6 7 9 12 12 14 13 12 12 11 11 11 12
11 8 1 3 4 5 5 3 4 4 4 3 5 4 4 3 5 8 5 3 2 1 0 1 3 5 4 3 1 3 4 7 5 6 6 6 5 4 4 5 5 5 5 6 7 7 8 9 10 8 7 8 12 11 12 11 10 8 11 11 10 10 10 10 10 10 7 9 9 7 9 9 9 12 12 12 12 11 9 11 12 11 11 11 11 11
9 7 2 4 2 2 4 3 5 6 3 3 6 11 9 8 7 4 4 3 5 2 3 2 4 3 2 2 4 4 3 4 2 6 5 4 5 5 5 4 4 5 4 4 5 6 6 7 6 8 10 11 10 11 9 8 9 9 10 11 11 11 11 11 11 10 11 11 11 12 12 11 10 11 12 11 9 10 11 9 7 11 11 11 11 11
7 1 3 5 3 3 3 4 3 7 5 1 5 7 10 6 4 2 1 2 2 2 1 2 1 6 6 1 4 4 4 4 3 4 3 4 3 3 3 3 3 4 4 5 5 6 8 8 8 9 10 9 10 8 5 7 9 9 9 9 10 10 9 10 10 10 9 12 11 12 11 10 9 9 7 5 6 7 6 7 11 9 11 12 12 11
1 3 2 3 3 3 3 6 4 8 5 4 1 3 3 4 5 4 4 5 3 1 4 1 1 5 3 4 1 5 6 3 3 2 2 2 2 2 2 2 3 3 3 3 5 5 6 6 6 7 7 8 8 5 6 8 8 10 9 9 10 9 10 9 9 12 11 11 10 11 11 10 10 10 8 7 7 7 7 11 10 10 10 12 12 12
3 1 3 3 2 3 7 4 4 6 5 3 1 5 3 4 3 5 3 1 1 1 6 4 1 3 4 5 2 5 4 2 2 2 1 1 1 1 1 2 3 3 3 3 4 5 6 6 6 5 7 6 6 7 8 7 7 6 7 8 10 12 10 9 11 12 12 11 11 10 9 11 8 8 7 5 7 9 8 11 10 10 10 10 11 11
1 1 2 7 6 7 3 1 3 9 5 1 5 6 6 6 6 3 2 2 1 1 4 5 2 3 6 4 0 0 2 5 5 5 4 3 3 2 1 1 2 3 3 3 4 4 4 4 4 4 4 7 7 6 6 6 6 7 7 10 13 11 9 9 11 12 12 11 10 12 11 12 9 7 7 8 10 9 8 11 10 8 9 8 9 9
1 3 6 4 5 3 4 1 1 0 1 5 4 4 4 7 3 3 6 2 1 3 5 11 9 7 6 4 6 6 6 3 7 2 3 3 2 2 2 1 2 2 3 3 3 4 3 3 3 3 7 5 6 5 6 7 8 7 9 9 13 8 8 9 10 12 12 11 11 11 11 11 11 10 10 11 11 10 11 10 9 9 7 7 8 8
1 1 0 1 3 3 3 4 3 1 1 3 1 2 2 2 6 3 3 4 0 6 5 3 4 4 7 5 4 5 1 2 9 11 12 9 7 6 4 3 2 2 2 2 3 3 3 4 5 4 6 6 5 6 8 7 7 8 6 7 12 11 10 9 10 12 12 11 11 10 10 11 9 9 9 10 10 8 8 8 8 6 7 8 8 9
3 5 2 4 4 8 2 6 3 4 2 4 5 5 3 4 5 3 2 2 5 5 1 2 2 1 9 7 1 2 3 2 4 4 13 13 10 7 5 4 3 2 2 3 3 2 3 3 3 4 4 5 6 7 6 6 5 5 5 7 12 10 8 9 9 11 10 11 10 9 10 9 8 9 9 9 9 6 7 7 8 9 8 8 9 9
6 2 0 3 2 4 7 6 2 0 1 5 5 5 5 0 0 3 4 1 5 5 4 0 1 4 3 6 1 4 4 4 6 6 9 12 12 10 8 4 3 2 2 2 2 1 1 1 2 2 3 4 4 5 4 4 4 4 5 6 11 8 6 5 8 9 10 9 8 7 8 8 8 9 8 8 8 6 6 6 6 6 6 7 7 7
1 2 6 7 5 3 7 9 10 6 8 7 2 8 7 7 5 4 3 4 5 5 1 5 1 5 2 2 1 5 4 3 2 4 8 6 6 5 4 4 3 3 2 2 2 2 2 1 2 3 3 4 4 4 4 4 4 4 6 7 8 8 6 7 7 8 9 8 7 7 7 8 7 7 7 6 5 5 6 5 6 5 6 6 6 6
6 5 4 3 1 4 9 1 6 6 4 1 3 5 5 7 6 4 5 3 2 3 3 2 5 3 3 0 1 1 2 4 3 5 7 7 5 5 5 5 4 4 4 3 3 2 2 2 2 2 3 3 4 4 4 4 4 5 5 6 6 6 5 6 6 6 6 6 6 7 7 7 6 5 4 4 4 4 3 3 4 5 4 4 4 4
2 3 1 3 2 3 3 4 1 4 5 4 5 5 6 2 4 1 2 1 1 2 9 2 6 4 1 1 3 2 3 2 2 4 5 6 5 5 5 5 4 4 4 4 4 3 4 3 3 3 4 4 3 4 4 4 4 4 5 5 6 5 5 6 5 6 5 5 6 5 5 5 5 6 5 4 4 4 3 3 3 4 4 3 4 5
6 5 1 3 2 0 0 1 2 4 3 8 2 7 2 2 4 4 4 2 2 4 7 2 7 4 1 8 1 1 1 2 2 4 5 5 5 7 6 6 6 6 5 4 4 4 4 4 4 3 3 4 4 4 4 4 3 4 4 4 6 5 6 4 4 4 4 4 4 4 4 4 4 4 4 4 4 3 4 4 3 3 5 4 4 3
3 4 2 1 1 2 2 2 4 1 1 3 2 2 4 2 1 2 4 4 2 4 4 4 2 4 8 7 2 4 8 9 7 7 7 9 8 8 7 8 7 4 4 4 5 5 5 5 5 5 4 4 3 3 4 4 4 3 3 3 5 6 4 4 4 4 4 4 3 3 5 5 5 4 5 4 4 4 4 5 5 5 5 4 5 5
1 3 4 1 1 1 1 3 6 4 1 1 2 3 1 2 2 4 6 3 4 4 1 8 2 10 4 5 11 9 13 12 11 9 12 11 11 10 10 10 9 8 7 7 7 7 6 6 5 5 5 5 5 4 3 3 3 4 4 5 5 5 4 6 6 5 5 4 4 4 3 3 2 2 2 3 3 5 4 4 5 6 7 7 7 7
2 1 5 1 3 1 2 4 8 10 8 1 1 1 0 0 2 3 1 4 5 4 5 4 8 5 4 4 7 8 7 13 16 15 10 10 11 10 10 10 8 7 8 8 7 7 6 6 5 4 4 3 2 1 1 2 4 3 4 4 4 4 4 4 3 3 2 1 2 3 2 1 2 4 3 4 4 5 5 5 5 6 5 6 8 7
2 1 7 1 1 4 6 1 2 2 4 7 11 9 11 7 2 3 9 3 1 3 6 4 14 6 3 1 2 3 4 11 12 12 12 12 12 12 10 7 6 8 8 7 6 6 6 6 5 4 3 1 2 2 3 1 2 3 2 2 2 2 2 3 1 1 1 1 1 1 1 2 1 3 4 5 4 6 5 5 6 5 5 6 6 5
3 2 5 4 6 8 3 1 1 1 1 1 4 4 5 2 4 3 9 6 1 3 3 2 1 8 1 2 2 4 3 8 11 10 11 11 12 10 7 5 5 7 7 8 7 7 7 6 6 6 6 5 4 3 3 3 3 4 4 3 2 3 3 3 2 2 1 1 1 0 1 2 3 3 4 5 4 5 5 5 5 4 5 6 5 4
4 2 1 2 1 3 2 1 2 2 0 1 1 3 3 6 9 11 8 4 5 1 1 1 5 3 2 2 2 1 2 5 7 9 11 9 8 8 8 8 10 9 8 6 6 6 6 6 5 5 5 4 3 3 4 4 4 3 3 4 4 4 5 4 3 3 2 2 1 0 2 3 3 4 4 4 4 5 5 5 4 5 5 5 6 8
3 3 5 1 1 2 5 6 4 3 2 2 3 3 2 1 4 2 5 1 0 7 6 6 14 6 0 2 2 4 4 6 8 6 6 9 7 8 9 10 9 7 6 7 8 8 6 5 6 6 5 4 4 4 4 4 4 4 5 4 5 5 5 5 4 3 3 1 0 2 3 3 3 3 4 4 4 5 5 5 5 5 6 7 7 7
3 3 7 8 12 10 6 6 5 8 10 3 1 1 3 7 5 3 3 3 7 3 7 4 11 2 2 3 1 2 2 2 3 4 3 3 5 9 8 8 7 6 8 8 7 6 9 7 6 5 4 4 4 5 5 4 5 5 5 6 5 6 4 4 2 1 0 1 1 3 3 2 2 3 4 4 4 4 5 5 5 6 5 5 8 8
2 0 4 6 7 9 7 2 2 4 3 6 4 6 7 3 3 3 4 4 10 3 7 12 7 2 2 2 3 3 2 6 6 4 5 6 7 6 5 5 6 8 9 11 10 7 4 5 7 6 5 6 6 5 5 6 6 6 5 4 0 1 0 0 1 1 1 2 3 1 1 2 3 3 3 4 4 4 4 5 5 6 6 6 7 8
2 3 9 12 13 8 2 3 3 5 7 6 7 7 6 6 6 10 10 8 4 4 14 6 7 4 8 5 6 5 6 7 4 4 5 5 6 9 8 5 5 5 6 4 4 7 10 9 6 6 6 5 6 5 5 5 3 1 1 1 1 1 2 1 3 3 3 3 2 1 2 3 2 3 3 3 4 4 5 5 6 6 6 6 8 8
5 8 4 6 6 4 3 3 2 2 2 3 6 8 9 7 5 10 6 13 10 12 14 5 7 7 9 8 8 10 12 10 9 10 11 11 5 2 3 6 8 10 7 7 9 9 9 9 7 7 6 7 6 6 6 4 2 1 1 1 1 3 3 3 5 4 4 2 2 2 2 3 3 3 4 4 5 6 6 6 6 6 7 6 7 7
3 5 3 2 4 3 2 3 2 5 2 2 5 8 6 8 8 7 12 10 5 5 5 7 4 10 8 6 8 10 6 4 5 5 1 2 5 7 7 8 9 8 8 11 12 11 9 8 7 8 7 7 7 7 4 4 3 3 4 3 3 3 2 4 4 4 3 3 2 1 2 2 3 3 4 5 6 6 7 7 8 8 8 8 7 7
4 3 6 1 2 2 2 1 2 1 2 7 9 9 4 4 7 12 9 1 1 5 11 11 10 13 10 6 5 2 3 4 4 5 7 6 5 7 8 8 8 9 9 10 8 8 8 7 7 6 7 8 7 7 6 5 4 5 5 5 4 4 3 4 4 3 3 2 1 1 1 2 3 3 4 5 5 4 5 8 7 7 6 6 6 7
2 3 3 1 4 3 1 3 3 2 1 4 9 13 4 6 8 8 7 6 7 12 11 4 6 11 13 1 4 4 4 7 10 10 7 7 7 6 7 9 8 8 9 10 10 8 7 7 7 8 9 8 7 6 6 6 6 6 6 5 5 4 3 4 3 4 3 2 1 2 3 3 4 5 5 5 5 5 5 5 6 6 6 7 7 7
4 6 4 2 5 5 1 3 3 3 2 9 18 16 12 12 11 6 4 6 14 9 5 8 13 13 6 2 3 6 8 8 5 6 8 8 5 8 10 9 8 8 10 10 9 9 9 9 10 10 9 6 7 8 7 8 7 7 6 5 4 4 4 4 3 3 3 2 2 3 3 4 4 4 4 4 5 6 6 7 7 7 8 8 7 7
2 6 5 4 6 2 3 4 3 2 9 16 1 8 14 13 15 16 14 13 8 8 8 10 11 5 1 3 7 11 7 7 9 9 6 7 6 6 6 5 7 8 7 6 7 9 9 7 7 8 8 9 8 7 7 6 7 6 4 5 4 4 3 4 3 3 3 3 3 3 3 3 3 3 4 4 5 5 7 7 7 6 6 6 7 7
7 6 5 2 5 5 2 3 3 11 18 1 0 2 5 9 8 15 14 10 7 9 10 7 7 7 9 9 10 9 6 4 3 4 5 7 6 6 8 9 8 7 8 8 7 7 8 9 7 6 5 6 8 7 7 5 5 6 5 4 5 3 4 3 3 3 3 2 2 2 2 4 3 4 4 4 5 5 5 6 6 6 6 6 7 8
4 5 3 1 4 4 3 7 7 11 1 3 2 2 2 2 1 1 5 7 11 12 12 10 12 13 10 10 6 2 2 3 3 4 5 4 6 7 7 7 9 8 8 9 10 9 8 8 10 11 10 6 7 6 5 7 6 6 5 3 5 4 4 3 3 3 2 2 2 2 3 3 4 4 4 5 5 5 6 5 5 7 7 6 6 5
8 4 2 3 3 6 4 8 11 6 11 13 7 4 6 6 6 7 8 9 12 7 9 9 12 13 8 6 2 0 1 0 2 6 2 5 5 4 8 9 9 10 9 7 8 10 10 9 9 8 6 7 7 8 6 6 5 6 5 4 3 4 3 3 2 2 2 1 1 2 2 3 3 4 4 4 6 6 6 6 6 5 4 7 6 7
1 8 3 4 4 5 5 5 3 1 13 14 7 1 1 3 6 5 4 7 5 2 8 11 12 13 7 1 2 3 1 1 6 7 5 6 4 6 5 4 3 4 5 7 6 5 5 4 3 4 8 9 7 5 5 5 6 6 5 4 4 3 3 2 2 3 2 1 0 1 1 2 2 4 4 4 5 7 6 5 5 5 4 6 8 8
3 2 2 6 3 3 2 6 7 9 10 5 2 4 1 0 6 4 1 7 6 7 11 12 10 6 5 6 4 5 5 4 8 6 8 6 5 5 7 8 6 7 7 8 10 10 8 8 7 7 5 7 8 6 5 6 6 6 4 4 4 3 3 3 3 3 2 1 0 1 1 2 2 3 4 5 6 5 7 6 6 6 5 6 6 8
2 0 3 4 3 6 3 5 10 4 7 3 4 3 2 3 5 5 1 8 4 7 5 7 7 7 8 6 9 7 8 8 7 7 6 8 9 8 9 10 8 7 7 6 5 6 6 7 8 6 8 10 9 7 7 5 5 5 5 4 4 3 4 4 4 3 2 1 1 1 1 2 3 4 4 6 6 5 6 6 6 6 6 6 6 7
4 2 4 11 11 11 12 6 3 6 6 3 7 6 4 3 5 4 10 8 2 6 7 7 8 9 8 8 7 7 9 8 9 8 4 1 2 4 5 5 7 7 9 8 9 8 8 9 12 13 13 9 8 8 6 5 5 4 4 5 3 4 5 3 3 2 2 1 1 2 2 3 3 5 5 5 6 5 5 5 6 6 6 7 7 6
3 2 4 2 8 11 8 8 10 6 6 6 2 10 7 6 4 10 6 2 9 6 6 9 9 5 8 10 8 8 8 10 8 1 1 5 8 9 10 8 3 1 1 2 6 7 7 8 6 5 4 6 9 8 6 5 6 4 5 3 5 5 3 4 3 2 1 2 2 2 3 4 4 4 5 5 5 6 6 5 5 6 7 6 6 8
10 8 8 10 4 2 2 7 3 8 5 13 11 3 2 4 7 4 2 0 4 8 8 7 6 6 8 7 9 10 9 6 6 7 7 5 6 7 8 7 8 8 8 6 4 5 9 8 9 10 9 7 7 7 6 6 6 4 4 5 6 4 5 3 3 3 2 2 3 3 4 4 5 6 4 5 5 6 8 6 5 6 6 6 6 7
4 5 3 5 6 7 9 9 11 8 4 13 15 9 6 11 6 6 6 4 4 5 7 7 7 8 7 8 9 9 9 8 6 5 5 5 6 6 5 5 6 6 5 7 10 12 10 11 9 8 7 7 7 6 6 8 7 5 5 8 3 4 4 3 3 3 2 3 3 4 4 4 5 5 5 5 6 5 7 7 5 5 5 6 6 7
9 10 8 8 5 9 10 10 2 4 9 8 8 6 8 12 5 7 4 4 6 6 5 6 8 8 8 9 9 9 7 8 10 9 8 10 9 9 10 10 12 12 12 12 11 10 10 13 13 10 8 7 7 6 7 5 8 6 7 4 5 4 5 4 3 2 3 4 4 4 4 4 5 5 5 6 5 6 6 6 4 6 4 5 5 6
4 2 3 2 5 4 3 5 2 1 5 9 6 4 7 7 6 4 6 6 5 5 9 8 8 7 7 8 7 6 7 8 9 9 7 7 7 9 8 7 6 6 6 5 3 9 11 7 6 9 11 7 7 7 6 6 7 8 5 3 5 4 4 4 3 3 4 4 4 4 4 5 5 5 5 6 5 6 6 6 6 6 6 5 6 6
4 2 3 4 3 2 8 2 6 7 4 6 11 8 5 4 7 6 5 7 8 6 6 5 7 7 8 8 10 11 10 10 10 10 8 7 8 8 9 11 11 11 12 12 13 10 8 8 10 11 11 12 8 7 6 6 5 5 4 6 5 4 4 4 4 4 4 4 4 4 4 4 5 5 5 4 4 5 5 5 5 5 6 6 7 7
5 5 4 7 4 6 7 4 3 2 1 5 8 8 9 12 10 5 7 7 7 5 5 7 5 5 2 4 9 10 12 10 9 10 8 9 10 10 9 10 11 9 10 10 7 10 9 11 13 13 11 12 10 7 7 6 6 5 5 4 4 4 4 4 4 5 5 4 4 4 4 5 6 6 5 5 5 6 6 5 5 5 7 7 7 7
4 5 4 5 7 7 2 1 2 1 2 4 7 8 10 10 6 6 7 8 6 6 7 5 4 7 5 9 8 8 8 11 10 10 10 9 9 8 9 11 11 12 11 9 10 12 15 14 12 12 12 9 7 8 7 6 5 5 6 5 4 5 5 5 4 4 4 4 3 4 3 4 5 5 6 6 5 6 6 7 6 7 8 9 8 8
4 7 2 3 5 4 6 7 6 2 5 8 10 14 15 10 6 7 5 5 6 7 7 7 8 6 8 8 7 7 9 11 11 8 9 10 11 10 10 10 9 9 8 7 5 9 9 8 11 11 10 7 6 7 7 6 5 4 5 4 4 5 5 4 4 3 4 4 4 4 3 4 5 4 5 6 7 7 7 8 13 10 7 8 13 17
9 13 7 8 11 6 5 9 10 11 8 7 9 10 8 6 6 7 9 10 9 9 8 7 9 10 8 10 8 8 10 11 13 9 7 8 11 9 7 5 5 5 7 6 8 8 10 9 7 7 8 7 6 7 7 6 5 5 5 6 5 6 6 4 4 3 4 3 4 4 4 4 5 5 5 6 6 5 7 9 8 12 15 15 14 16
Wind_Direction
110 140 187 215 211 205 210 198 205 201 131 110 100 131 216 231 275 290 274 258 38 337 259 263 285 261 277 307 352 346 28 64 74 78 77 68 64 57 55 47 37 38 29 348 4 12 11 12 15 16 23 26 41 34 27 32 28 27 23 28 28 11 19 29 29 33 35 33 38 49 51 55 39 39 41 40 30 36 34 31 31 33 36 34 33 31
71 182 236 229 214 206 214 213 250 322 63 136 291 228 278 207 260 256 253 332 315 161 295 6 317 287 267 344 7 0 50 39 44 75 73 76 67 59 55 45 33 18 19 16 21 17 16 16 16 19 25 28 38 24 31 32 27 25 25 33 24 19 26 29 28 37 49 40 48 75 59 69 46 37 35 29 25 25 31 32 31 30 26 31 33 27
132 201 238 234 221 79 89 148 188 200 231 114 207 236 295 268 246 275 271 301 275 111 259 360 254 269 311 12 25 44 57 52 39 48 60 71 64 54 46 41 33 36 30 21 22 17 18 20 19 26 29 37 41 38 38 35 36 28 30 29 30 27 29 25 21 32 44 49 55 68 60 60 75 53 52 52 36 31 34 34 33 30 29 30 34 30
220 279 245 245 105 189 277 109 118 102 88 143 104 129 232 230 17 304 293 8 9 142 263 179 225 273 7 63 57 29 58 73 60 63 58 51 61 56 49 32 32 34 28 28 14 12 16 26 21 28 34 30 40 38 34 30 33 32 30 27 29 31 32 28 21 27 27 53 68 70 76 71 75 67 37 42 35 27 27 27 26 30 26 29 33 29
205 225 317 116 167 163 221 145 139 143 226 258 189 204 240 244 228 185 251 330 318 10 70 268 286 302 248 206 60 70 71 77 55 59 53 43 45 51 57 50 32 41 23 24 16 14 22 27 23 24 28 35 43 36 35 30 29 31 29 27 30 33 32 31 27 27 31 40 38 37 53 53 50 37 35 34 25 21 20 24 23 18 22 27 32 29
274 256 99 64 80 151 189 231 197 137 222 304 229 202 216 217 228 251 316 9 13 335 339 67 337 300 302 282 170 154 70 57 30 63 50 41 33 35 46 36 23 32 32 34 18 16 21 25 14 24 31 40 42 38 28 33 35 33 34 33 33 36 34 29 26 27 45 52 53 45 43 40 44 44 30 30 20 13 18 11 1 22 24 24 29 29
221 282 174 209 147 156 178 220 234 163 186 56 272 197 218 211 191 178 199 89 278 208 304 37 219 268 321 310 191 150 96 82 35 53 56 38 40 38 33 34 31 31 25 23 30 25 34 20 23 26 32 30 41 29 22 38 40 41 41 41 44 45 42 35 35 33 44 56 56 61 65 62 56 61 43 38 37 41 27 28 26 18 22 24 25 24
161 283 129 85 116 138 181 243 238 156 124 236 252 141 144 151 171 195 159 171 223 261 302 14 135 259 299 283 99 139 109 91 75 52 43 55 56 39 40 32 33 32 31 33 30 31 33 32 23 31 27 31 31 16 31 44 40 41 40 46 49 50 49 43 44 49 46 60 58 62 62 59 58 58 55 35 37 41 39 41 30 25 23 22 24 23
156 264 158 172 148 149 210 207 187 164 146 219 215 120 135 155 164 130 112 133 47 47 289 314 306 322 254 254 39 139 126 216 189 173 175 129 110 88 62 30 36 36 37 47 49 36 32 29 18 17 37 25 32 27 36 39 38 42 44 52 55 51 49 43 49 57 53 61 63 66 64 64 52 59 57 54 47 44 36 46 33 33 26 25 24 24
311 200 226 165 151 218 220 303 178 166 196 245 138 89 81 74 66 95 101 93 347 78 266 251 185 241 276 272 181 249 275 231 197 198 187 193 181 176 130 80 55 48 48 44 50 43 38 27 17 4 35 43 32 26 33 39 44 48 50 53 56 49 47 46 51 57 57 57 61 62 60 66 57 49 50 51 44 39 33 44 35 30 30 25 25 22
232 283 157 129 190 204 142 71 133 44 135 128 86 70 21 37 30 32 60 86 44 254 237 216 202 179 286 259 208 160 212 187 146 156 186 194 203 215 203 152 122 85 64 51 47 38 42 25 27 4 49 43 37 30 39 42 42 45 50 55 60 50 51 50 55 58 59 57 56 62 60 61 58 48 49 47 39 32 34 36 28 27 22 26 26 20
349 1 192 252 98 121 101 81 33 67 91 120 101 126 43 338 11 35 345 41 180 267 259 287 232 177 197 289 267 226 154 197 174 182 177 181 190 187 190 193 164 136 96 73 57 45 30 34 29 28 47 42 39 44 44 41 40 47 49 59 69 50 46 49 53 59 57 59 58 61 61 62 57 55 54 53 48 35 39 32 27 13 23 23 21 21
265 226 235 329 196 134 102 78 350 22 17 83 83 52 116 256 35 310 21 279 213 223 229 357 146 353 244 224 207 263 275 288 249 208 179 172 178 184 187 188 174 131 95 79 79 57 45 43 32 46 46 49 46 53 48 44 46 50 56 58 72 55 43 49 54 63 61 62 57 58 60 62 60 58 56 53 51 37 39 27 27 22 23 13 20 16
271 297 181 247 22 216 137 138 171 67 219 121 156 143 98 252 55 259 272 231 307 291 281 188 59 273 251 291 173 267 282 281 265 238 172 170 169 175 178 170 144 114 114 113 96 83 65 77 72 66 84 77 70 64 63 60 66 65 66 62 71 64 48 53 60 62 66 62 61 58 62 59 56 53 52 46 48 33 35 27 30 29 22 19 19 7
202 328 258 150 233 172 171 188 181 163 160 206 112 151 184 141 154 232 188 219 235 223 271 275 64 230 120 226 279 246 278 317 330 138 141 146 157 154 140 134 134 131 134 137 131 138 152 154 140 133 118 98 94 87 78 78 70 71 65 63 69 66 44 54 57 59 62 59 55 58 59 59 57 58 55 52 48 37 32 19 30 22 16 22 359 3
203 222 263 256 274 153 178 205 118 100 63 188 162 78 89 233 136 225 202 162 247 325 328 180 205 192 179 167 248 13 39 39 41 103 128 138 138 137 141 159 170 171 170 177 169 193 200 189 180 147 121 116 109 102 89 75 77 81 81 78 76 78 64 57 59 59 64 63 60 57 58 57 62 64 65 55 44 33 36 19 31 15 14 4 350 338
55 273 281 324 54 157 176 149 197 149 196 210 109 193 208 144 112 45 7 58 89 45 254 145 301 293 303 92 17 354 59 39 73 121 143 154 159 153 170 181 187 188 185 184 180 188 184 185 188 172 150 139 127 117 113 114 112 110 99 93 85 76 64 58 60 65 63 67 67 57 64 64 64 63 61 55 32 20 7 11 0 9 348 343 351 341
142 233 288 129 213 319 213 154 107 33 150 99 177 233 160 129 113 130 224 328 68 204 267 91 215 274 93 278 52 2 135 185 198 180 182 178 170 174 190 191 194 196 194 184 188 194 192 184 178 183 180 161 149 144 139 137 147 125 126 115 102 91 84 80 84 83 83 87 86 87 84 89 91 77 65 58 37 10 18 359 355 341 355 355 333 334
122 280 284 303 111 318 8 90 40 349 37 146 192 205 116 223 202 314 86 266 262 258 267 288 242 241 191 241 108 247 204 206 199 199 184 196 191 192 196 204 207 202 174 174 190 194 194 192 188 180 181 191 178 165 156 151 143 123 101 97 94 93 100 110 98 96 83 72 73 71 61 55 47 42 40 34 30 16 12 3 358 360 346 337 338 344
41 168 293 345 121 294 25 97 193 213 355 65 80 69 313 112 169 127 200 186 120 263 355 285 343 258 195 219 184 208 202 191 182 192 205 196 194 193 196 198 196 189 181 184 189 191 188 189 189 182 174 172 169 151 136 116 93 75 73 76 71 66 62 53 48 49 52 32 59 57 55 39 54 63 42 30 34 18 14 358 358 352 356 350 344 349
172 115 234 300 296 89 182 190 211 168 163 74 145 243 340 17 225 104 24 143 192 187 202 261 291 272 265 202 184 218 197 184 179 188 190 196 202 206 204 197 192 181 186 194 190 187 188 191 198 203 201 177 145 122 140 117 107 83 59 62 61 79 64 66 52 65 57 68 63 79 63 25 25 21 23 16 12 15 3 360 357 356 346 340 350 349
117 176 197 326 137 218 238 260 223 196 210 179 171 197 183 135 176 211 254 75 128 140 231 183 255 272 262 142 211 240 209 179 189 175 184 195 202 203 205 205 184 189 203 196 192 187 191 198 204 206 193 167 149 143 126 113 90 100 120 143 105 77 87 91 60 108 118 59 47 70 10 358 353 18 24 17 6 6 359 353 351 339 346 346 329 344
153 140 101 201 207 207 232 302 197 197 116 167 169 249 168 168 102 135 240 233 44 249 105 178 294 260 228 285 258 242 201 182 178 175 186 194 201 203 206 192 201 206 199 196 193 194 196 194 190 181 177 178 180 177 166 146 171 183 186 172 170 140 209 192 199 208 219 159 133 151 358 353 18 13 18 10 358 0 351 349 340 341 343 331 327 322
95 109 96 301 317 314 323 315 91 95 84 19 318 77 117 186 203 219 238 174 164 194 233 319 246 261 309 3 317 311 185 162 161 173 186 195 196 201 198 192 201 204 206 201 198 197 197 189 180 171 178 190 192 177 185 186 193 187 180 190 184 194 207 215 225 216 203 207 245 11 16 18 6 15 0 6 352 356 347 344 340 335 340 331 334 336
124 249 140 180 4 350 341 343 351 359 48 194 215 219 186 116 68 99 87 92 94 221 176 150 252 238 264 360 20 69 95 142 173 205 182 188 203 200 201 206 207 201 189 194 198 198 192 184 179 189 192 188 190 189 186 188 189 191 205 196 199 211 211 207 213 198 216 191 212 24 27 0 359 6 358 360 355 351 346 344 342 343 342 337 341 340
135 179 140 192 218 221 218 187 207 220 218 204 222 255 239 187 162 122 189 166 220 195 154 209 253 296 296 332 30 52 112 177 219 206 224 229 203 201 210 212 204 189 200 201 199 193 196 189 190 190 190 189 187 185 189 196 197 205 207 212 205 206 212 221 204 208 80 58 59 21 19 349 356 4 358 359 357 354 350 347 352 349 349 349 341 340
165 164 185 213 211 232 243 208 263 91 67 184 227 190 213 186 209 159 106 155 218 218 211 234 233 117 271 214 236 236 197 187 209 209 207 219 230 231 228 215 201 201 202 202 199 192 168 194 202 196 188 188 188 190 194 195 206 209 210 230 304 289 305 24 112 88 91 95 77 54 358 3 359 2 4 360 355 354 356 358 354 354 350 349 343 337
95 198 216 220 232 245 161 189 214 174 190 211 195 228 209 187 171 167 180 220 171 208 247 225 105 199 243 227 215 213 221 222 226 219 222 240 234 213 213 209 205 212 220 199 183 186 196 199 194 189 190 190 197 202 210 211 205 199 212 231 261 233 168 139 114 108 101 84 67 47 1 5 345 12 5 356 5 3 1 358 354 352 346 344 341 339
156 219 207 160 240 167 197 168 150 149 209 187 210 214 207 177 151 177 203 222 182 211 246 236 169 207 237 223 197 211 207 201 203 212 213 214 208 173 162 195 207 214 207 192 206 203 195 193 190 189 190 199 199 205 215 204 191 169 144 115 64 81 65 108 103 97 96 101 80 22 6 353 4 9 5 4 5 5 360 354 347 344 344 340 337 336
117 247 174 158 206 150 220 174 133 171 211 261 239 235 213 162 192 175 220 230 204 246 277 265 226 229 231 231 190 219 223 183 214 213 185 164 196 199 208 216 217 214 202 204 205 203 197 190 185 190 192 202 203 210 203 190 176 166 149 133 121 97 96 92 100 106 110 93 67 10 7 2 12 9 2 10 4 3 352 347 344 342 340 339 336 333
151 274 107 140 160 256 272 353 41 137 213 245 255 257 231 139 183 215 232 213 129 278 256 255 264 269 258 223 214 246 198 243 283 253 214 213 212 207 208 218 220 217 213 212 208 201 194 190 192 193 199 207 203 203 194 186 169 153 143 146 142 129 140 120 115 112 110 106 86 38 19 28 13 10 11 7 2 351 349 344 341 337 334 334 336 333
136 239 58 107 190 281 146 151 133 71 46 245 264 256 179 204 237 231 223 195 205 226 232 249 271 259 262 133 160 197 199 216 227 238 246 232 218 208 210 220 217 216 212 208 205 195 190 193 195 200 207 209 202 191 180 172 166 154 151 154 144 137 129 111 111 112 110 97 75 47 36 19 12 9 4 360 352 347 344 340 338 336 334 333 334 336
180 136 146 143 206 227 190 103 127 77 5 288 249 236 201 213 230 248 252 203 219 212 191 216 238 240 254 115 177 234 218 225 239 239 240 246 214 198 209 213 213 213 209 203 194 194 195 197 202 204 210 203 193 190 194 166 156 164 158 143 142 123 110 106 109 106 93 73 62 45 33 21 19 0 354 351 347 340 342 341 337 337 336 333 330 328
117 164 186 176 205 176 93 118 93 92 243 243 6 145 172 197 213 230 237 230 218 164 207 212 237 266 302 251 239 252 234 214 217 233 213 215 215 213 227 220 216 212 206 198 195 196 202 203 210 212 206 199 193 184 168 167 153 145 135 129 123 114 117 117 100 100 91 70 58 38 27 21 7 357 346 344 342 342 339 339 332 327 321 319 325 327
171 183 175 173 145 183 165 119 160 210 239 49 317 324 183 196 207 218 236 247 233 220 232 249 267 254 235 227 232 238 245 264 266 249 237 215 194 195 199 207 212 202 198 195 205 211 203 196 191 182 180 182 170 158 143 131 127 129 125 134 119 119 113 98 105 89 94 82 60 37 18 8 357 348 340 341 338 336 330 324 318 318 319 322 323 324
160 150 133 52 114 49 111 196 211 236 110 253 248 154 82 85 195 95 319 267 244 221 212 218 234 241 237 240 245 256 246 277 297 254 241 240 198 190 186 204 208 196 200 204 196 201 186 185 183 182 187 163 148 152 151 147 145 135 133 117 113 102 101 111 105 106 102 79 49 24 6 2 347 340 335 329 328 323 316 313 309 314 317 315 311 303
160 86 162 193 198 180 200 193 243 7 312 283 257 161 172 189 175 169 232 256 244 206 182 201 226 243 236 246 214 244 352 15 329 301 268 211 218 214 195 207 195 202 205 205 192 195 195 188 185 184 150 155 158 153 156 146 139 131 124 110 108 111 128 117 119 131 117 114 42 14 4 352 337 324 319 318 315 311 308 310 309 307 309 308 307 308
187 175 222 204 257 131 160 237 314 251 250 253 253 60 239 150 135 180 176 275 276 180 184 181 215 232 226 188 166 173 114 68 288 271 270 256 205 205 242 242 236 208 201 203 205 203 184 180 142 140 158 155 157 153 139 139 133 127 127 138 143 136 134 124 159 152 135 154 148 336 332 325 315 304 303 305 301 300 300 300 297 298 307 304 307 304
11 52 201 215 211 69 180 216 218 234 246 234 200 174 238 160 128 103 75 279 265 189 203 181 209 226 193 175 174 139 115 194 246 255 261 245 236 199 215 228 213 213 207 200 187 191 189 184 170 153 140 149 158 158 141 135 135 135 149 156 155 141 153 180 177 167 167 199 221 263 291 295 288 287 290 290 288 292 296 299 298 299 299 289 289 291
68 8 120 223 212 223 195 228 241 224 254 271 221 256 224 156 130 82 18 274 258 211 180 165 193 196 203 181 147 156 156 205 241 253 233 222 217 215 202 215 216 219 226 211 219 197 169 139 125 144 163 178 176 147 148 142 143 154 155 164 144 159 194 200 183 168 153 186 233 256 271 276 274 275 279 282 286 285 283 289 296 293 293 290 286 291
174 283 213 208 219 227 224 256 339 285 272 182 157 164 174 154 90 109 220 235 231 186 199 178 194 192 167 154 163 173 224 197 207 229 231 173 159 241 239 234 224 210 202 189 191 151 154 172 174 180 184 173 152 153 152 147 143 157 158 154 156 205 209 179 154 155 191 204 244 255 260 265 263 274 275 272 279 281 283 282 284 290 287 291 292 288
340 83 325 293 226 226 222 230 237 266 234 165 279 149 167 101 206 209 234 200 146 195 193 190 194 193 158 173 187 207 220 223 238 264 181 189 197 211 208 206 186 137 97 150 155 156 161 166 169 143 136 152 156 155 153 149 150 155 156 152 209 216 170 154 162 179 197 232 248 254 267 267 273 267 269 276 278 284 279 270 269 275 282 282 287 292
183 153 198 206 205 61 144 226 278 259 263 130 128 67 277 149 232 184 146 270 189 180 177 215 206 210 167 205 211 212 230 245 232 226 227 219 208 214 209 190 192 194 180 155 161 190 164 167 180 186 173 158 159 154 158 144 151 162 164 196 221 180 160 165 173 198 214 236 248 258 262 266 268 273 273 275 272 276 281 280 277 272 272 280 285 285
198 115 229 237 181 157 193 194 210 223 113 156 140 174 210 211 188 160 135 185 226 169 185 192 224 215 198 199 212 230 236 242 264 245 238 245 236 243 239 219 216 212 200 203 191 179 175 182 181 173 166 165 164 161 158 153 157 173 185 220 179 160 157 171 188 200 223 240 249 259 265 264 267 265 267 268 274 272 278 282 274 273 272 276 281 288
211 194 174 187 209 162 197 214 215 143 158 193 169 189 200 215 178 181 161 193 174 221 188 177 222 223 204 208 220 217 229 229 230 229 208 223 217 215 214 212 208 204 199 194 199 185 180 183 183 174 171 176 169 166 163 164 160 172 198 213 160 172 170 185 189 201 236 246 254 260 261 268 265 267 267 268 267 277 277 280 278 285 272 272 279 278
293 196 163 83 252 265 275 205 126 40 162 195 239 208 201 227 240 202 208 229 237 205 168 187 214 213 208 207 211 245 229 234 233 242 232 232 224 228 226 234 240 231 221 205 177 179 193 181 163 167 176 182 179 171 169 171 162 174 209 161 163 167 175 178 183 222 241 247 253 257 266 278 278 270 267 267 262 258 263 270 280 277 284 277 272 269
242 164 154 197 266 150 259 134 155 198 194 195 210 236 245 236 229 209 207 222 233 211 207 220 211 209 207 189 199 220 233 231 234 239 236 235 232 230 219 219 225 211 201 198 205 172 164 169 173 185 185 188 191 179 175 171 180 179 159 161 165 170 168 172 191 224 246 254 257 267 265 271 278 281 274 269 268 263 265 263 258 263 272 274 275 272
301 182 147 222 206 192 239 216 209 43 178 215 207 212 238 243 236 191 206 218 223 234 213 220 207 243 205 194 210 215 234 237 227 236 236 230 232 230 224 220 224 223 223 214 186 177 176 179 188 191 188 196 187 179 174 176 182 183 174 175 173 170 160 184 198 218 240 248 250 263 263 267 274 278 285 277 274 281 279 260 246 251 260 267 267 273
182 121 221 180 199 237 238 275 116 28 329 267 244 242 232 228 220 215 219 224 228 238 249 246 188 219 210 227 222 218 235 248 236 229 230 236 237 237 232 227 221 219 211 187 187 180 187 191 193 194 190 191 168 173 176 183 185 177 177 183 178 165 170 197 214 224 243 251 257 265 263 261 271 276 279 284 273 259 256 272 268 262 261 249 241 235
94 236 190 101 229 227 173 213 148 172 247 241 227 228 230 229 209 228 225 223 231 235 240 249 260 236 230 239 232 213 222 243 247 228 228 233 236 236 236 233 229 218 209 202 176 194 196 193 190 182 184 176 166 172 177 184 187 184 181 180 176 166 179 199 209 226 251 246 248 257 266 274 273 273 275 275 284 286 282 264 284 278 269 276 274 276
194 220 146 200 224 231 219 211 195 212 234 228 227 230 225 210 191 216 233 232 232 223 222 227 249 266 250 241 226 212 224 233 245 236 228 243 245 243 246 251 247 225 208 174 168 191 197 189 173 166 173 172 164 170 178 184 186 183 190 183 182 173 186 180 196 222 244 250 253 250 254 263 275 274 270 272 279 284 299 309 302 297 288 279 277 287